[Iaude] MPEC E62: 2024 EK1 [a=0.89,e=0.30,i=18.8,H=22.1]

mpec at cfa.harvard.edu mpec at cfa.harvard.edu
Tue Mar 5 12:57:41 EST 2024


M.P.E.C. 2024-E62                                 Issued 2024 March 5, 17:56 UT

     The Minor Planet Electronic Circulars contain information on unusual
         minor planets, routine data on comets and natural satellites,
         and occasional editorial announcements.  They are published
    on behalf of Division F of the International Astronomical Union by the
          Minor Planet Center, Smithsonian Astrophysical Observatory,
                          Cambridge, MA 02138, U.S.A.
			  
             Prepared using the Tamkin Foundation Computer Network

                              MPC at CFA.HARVARD.EDU
            URL https://www.minorplanetcenter.net/    ISSN 1523-6714

                                    2024 EK1                                    


Observations:
     K24E01K  C2024 02 24.62141415 05 26.710+32 33 25.72         21.94GVEE062F51
     K24E01K  C2024 02 24.63141115 05 26.568+32 33 36.11         22.17GVEE062F51
     K24E01K  C2024 02 24.64111815 05 26.426+32 33 45.79         22.68GVEE062F51
     K24E01K  C2024 02 26.57004915 05 10.996+33 07 26.69         21.90GVEE062F51
     K24E01K  C2024 02 26.58069615 05 10.701+33 07 38.03         20.77GVEE062F51
     K24E01K  C2024 02 26.59177915 05 10.422+33 07 50.97         21.35GVEE062F51
     K24E01K  C2024 02 26.60318815 05 10.137+33 08 03.00         21.44GVEE062F51
     K24E01K  C2024 02 28.61185615 04 29.697+33 45 23.69         22.30GVEE062F51
     K24E01K  C2024 02 28.64514615 04 28.395+33 46 01.55         21.66GVEE062F51
     K24E01K* C2024 03 02.63968615 02 37.781+34 46 09.07         21.54wXEE062F51
     K24E01K  C2024 03 02.64420315 02 37.507+34 46 14.77         21.39wXEE062F51
     K24E01K  C2024 03 02.64872715 02 37.237+34 46 20.47         21.56wXEE062F51
     K24E01K KC2024 03 03.33840215 02 03.68 +35 00 46.7          21.3 GVEE062H21
     K24E01K KC2024 03 03.34400015 02 03.32 +35 00 53.8          21.5 GVEE062H21
     K24E01K KC2024 03 03.34739915 02 03.808+35 00 58.75         20.75GVEE062I52
     K24E01K KC2024 03 03.34854815 02 03.03 +35 01 00.0          21.2 GVEE062H21
     K24E01K KC2024 03 03.35546215 02 03.354+35 01 09.48         21.44GVEE062I52
     K24E01K KC2024 03 03.36351915 02 02.796+35 01 20.21         21.25GVEE062I52
     K24E01K KC2024 03 03.37157315 02 02.306+35 01 31.44         20.96GVEE062I52
     K24E01K  C2024 03 03.57077115 01 50.657+35 05 57.06         21.22GVEE062F52
     K24E01K  C2024 03 03.57160815 01 50.604+35 05 58.34         21.32GVEE062F52
     K24E01K KC2024 03 04.29956615 01 08.73 +35 21 37.4          21.9 GVEE062H21
     K24E01K KC2024 03 04.31142715 01 07.89 +35 21 53.9          22.0 GVEE062H21
     K24E01K  C2024 03 04.43622215 00 59.404+35 24 43.99         21.2 GVEE062H01
     K24E01K  C2024 03 04.44190215 00 58.971+35 24 51.65         21.2 GVEE062H01
     K24E01K  C2024 03 04.45054215 00 58.337+35 25 03.18         21.2 GVEE062H01
     K24E01K  C2024 03 04.45721615 00 57.812+35 25 12.30         21.2 GVEE062H01

Observer details:
F51 Pan-STARRS 1, Haleakala.  Observers J. Herman, T. Lowe, P. Minguez, A.
    Schultz, I. Smith.  Measurers K. Chambers, T. de Boer, J. Fairlamb, H.
    Gao, M. Huber, C.-C. Lin, E. Magnier, Y. Ramanjooloo, R. Wainscoat, R.
    Weryk.  1.8-m Ritchey-Chretien + CCD.
F52 Pan-STARRS 2, Haleakala.  Observers J. Herman, T. Lowe, P. Minguez, A.
    Schultz, I. Smith.  Measurers K. Chambers, T. de Boer, J. Fairlamb, H.
    Gao, M. Huber, C.-C. Lin, E. Magnier, Y. Ramanjooloo, R. Wainscoat, R.
    Weryk.  1.8-m Ritchey-Chretien + CCD.
H01 Magdalena Ridge Observatory, Socorro.  Observers W. H. Ryan, E. V. Ryan.
    Measurer W. H. Ryan.  2.4-m f/8.9 Ritchey-Chretien + CCD.
H21 Astronomical Research Observatory, Westfield.  Observer R. Holmes.
    Measurers T. Linder, R. Holmes, L. Horn.  0.76-m f/3.0 astrograph + CCD.
I52 Steward Observatory, Mt. Lemmon Station.  Observers T. Beuden, J. K.
    Hogan.  Measurers T. Beuden, V. F. Carvajal, D. Fay, J. B. Fazekas, D. C.
    Fuls, A. R. Gibbs, A. D. Grauer, H. Groeller, J. K. Hogan, R. A. Kowalski,
    S. M. Larson, G. J. Leonard, D. Rankin, R. L. Seaman, F. C. Shelly, K. W.
    Wierzchos.  1.0-m prime focus + CCD.

Orbital elements:
2024 EK1                                                 Earth MOID = 0.0113 AU
Epoch 2024 Mar. 31.0 TT = JDT 2460400.5                 MPC                     
M 231.91019              (2000.0)            P               Q                  
n   1.16650563     Peri.  312.09295     +0.90536107     +0.40200806             
a   0.8937406      Node    25.14856     -0.22711731     +0.73059512             
e   0.3040010      Incl.   18.77656     -0.35880227     +0.55192418             
P   0.84           H   22.14          G   0.15           U   6                  
Residuals in seconds of arc
240224 F51  0.1-  0.1-    240302 F51  0.2-  0.0     240303 I52  0.1+  0.2+
240224 F51  0.0   0.1+    240302 F51  0.1-  0.0     240303 F52  0.1+  0.2-
240224 F51  0.1+  0.1-    240302 F51  0.0   0.1+    240303 F52  0.2+  0.0
240226 F51  0.1+  0.2+    240303 H21  0.1+  0.0     240304 H21  0.2-  0.3+
240226 F51  0.2-  0.3-    240303 H21  0.0   0.3-    240304 H21  0.2-  0.5+
240226 F51  0.1-  0.4+    240303 I52  0.1-  0.2+    240304 H01  0.1+  0.2-
240226 F51  0.1+  0.1-    240303 H21  0.1+  0.1-    240304 H01  0.0   0.2-
240228 F51  0.1-  0.3+    240303 I52  0.5+  0.0     240304 H01  0.3+  0.3-
240228 F51  0.1+  0.1-    240303 I52  0.2-  0.1-    240304 H01  0.1+  0.1-

Ephemeris:
2024 EK1                 a,e,i = 0.89, 0.30, 19                  q = 0.6220
Date    TT    R. A. (2000) Decl.     Delta      r    Elong.  Phase     V
2024 02 04    14 52 46.5 +28 22 04   0.4557  1.1610   100.8    56.5    22.8
...
2024 02 19    15 04 29.2 +31 06 13   0.3725  1.1650   109.2    53.3    22.3
...
2024 02 27    15 05 03.8 +33 15 08   0.3256  1.1611   113.9    51.2    21.9
...
2024 03 04    15 01 25.6 +35 15 08   0.2901  1.1553   117.7    49.5    21.6
2024 03 05    15 00 22.2 +35 37 16   0.2842  1.1541   118.3    49.2    21.6
2024 03 06    14 59 09.7 +36 00 02   0.2783  1.1528   118.9    48.9    21.5
...
2024 03 12    14 48 05.2 +38 29 28   0.2435  1.1439   122.8    46.9    21.1
...
2024 03 20    14 18 47.3 +42 13 44   0.1996  1.1283   127.4    44.5    20.6
...
2024 04 04    12 01 16.9 +45 32 43   0.1354  1.0879   127.5    46.8    19.8

A. U. Tomatic                (C) Copyright 2024 MPC           M.P.E.C. 2024-E62





More information about the Iaude mailing list